PROFILE

 METAR AND TAF INFORMATION
ADDS - METARS form results

(1246 UTC 26 March 2019)
http://aviationweather.gov/metar/data/
 
FMEE 261230Z AUTO 07014KT 9999 BKN044 BKN052 31/23 Q1009 TEMPO 4000 SHRA FEW026CB BKN046 BECMG 15006KT
FMEE 261200Z AUTO 07014KT 9999 FEW041 32/23 Q1009 TEMPO 4000 SHRA FEW026CB BKN046
TAF FMEE 261100Z 2612/2718 08016KT 9999 FEW032 SCT050 PROB30 TEMPO 2612/2616 4000 SHRA FEW026CB BKN046 BECMG 2614/2616 15006KT BECMG 2705/2707 07010KT PROB30 TEMPO 2708/2712 4000 SHRA FEW026TCU 

 AIRPORT MAP

 RUNWAY INFORMATION
Runway 12 Runway length 10499 ft Runway width 148 ft
Runway elevation 38 ft Runway displaced threshold 398 ft Runway heading 102
Runway 30 Runway length 10499 ft Runway width 148 ft
Runway elevation 31 ft Runway displaced threshold 0 ft Runway heading 282
Runway 14 Runway length 8760 ft Runway width 148 ft
Runway elevation 27 ft Runway displaced threshold 328 ft Runway heading 116
Runway 32 Runway length 8760 ft Runway width 148 ft
Runway elevation 65 ft Runway displaced threshold 1165 ft Runway heading 296

 AIRPORT FREQUENCIES
Type A/G Name GILLOT RDO Frequency 347.6 MHZ
Type APP Name GILLOT APP Frequency 119.4 MHZ
Type ATIS Name ATIS Frequency 126.8 MHZ
Type GND Name GILLOT GND Frequency 121.9 MHZ
Type TWR Name GILLOT TWR Frequency 118.4 MHZ

 AIRPORT NEAR NAVIGATION AIDS
Type NDB Name St Denis Gillot Frequency 382 KHZ
Type VOR-DME Name St Denis Gillot Frequency 112900 KHZ